Saint Bonnet de Bellac- Haute Vienne - France
Donnes mto: mercredi, 17/10/2012
Date Horaire Temp. E. Hum. E. P.atmo. Pluie Vent Direction Direction Ensoleilleme Solaire P. de rose Temp au vent Rafales
17/10/2012 00:00 12,5 C 90 % 1007,1 hPa 0,0 mm 5,4 km/h (2 Bft) S-SO 202 0 min 0 W/m 10,9 C 12,5 C 12,2 km/h (2 Bft)
17/10/2012 00:10 12,6 C 90 % 1006,8 hPa 0,0 mm 9,4 km/h (2 Bft) S 180 0 min 0 W/m 11,0 C 12,6 C 15,8 km/h (3 Bft)
17/10/2012 00:20 12,8 C 89 % 1006,6 hPa 0,1 mm 14,8 km/h (3 Bft) S 180 0 min 0 W/m 11,0 C 12,8 C 20,2 km/h (4 Bft)
17/10/2012 00:30 12,8 C 88 % 1006,4 hPa 0,0 mm 8,6 km/h (2 Bft) SO 225 0 min 0 W/m 10,9 C 12,8 C 11,2 km/h (2 Bft)
17/10/2012 00:40 12,9 C 88 % 1006,3 hPa 0,0 mm 16,2 km/h (3 Bft) S 180 0 min 0 W/m 11,0 C 12,9 C 19,4 km/h (3 Bft)
17/10/2012 00:50 13,1 C 88 % 1006,4 hPa 0,0 mm 8,3 km/h (2 Bft) S-SO 202 0 min 0 W/m 11,2 C 13,1 C 15,5 km/h (3 Bft)
17/10/2012 01:00 13,2 C 87 % 1006,4 hPa 0,0 mm 10,1 km/h (2 Bft) S-SO 202 0 min 0 W/m 11,1 C 13,2 C 10,4 km/h (2 Bft)
17/10/2012 01:10 13,3 C 86 % 1006,2 hPa 0,0 mm 11,2 km/h (2 Bft) S-SE 157 0 min 0 W/m 11,0 C 13,3 C 14,0 km/h (3 Bft)
17/10/2012 01:20 13,3 C 86 % 1006,2 hPa 0,0 mm 10,4 km/h (2 Bft) S 180 0 min 0 W/m 11,0 C 13,3 C 18,4 km/h (3 Bft)
17/10/2012 01:30 13,4 C 85 % 1006,2 hPa 0,0 mm 8,3 km/h (2 Bft) S-SO 202 0 min 0 W/m 10,9 C 13,4 C 15,1 km/h (3 Bft)
17/10/2012 01:40 13,4 C 85 % 1006,0 hPa 0,0 mm 6,8 km/h (2 Bft) S-SO 202 0 min 0 W/m 10,9 C 13,4 C 10,1 km/h (2 Bft)
17/10/2012 01:50 13,6 C 84 % 1006,1 hPa 0,0 mm 6,1 km/h (2 Bft) S 180 0 min 0 W/m 10,9 C 13,6 C 6,1 km/h (2 Bft)
17/10/2012 02:00 13,6 C 84 % 1005,9 hPa 0,0 mm 9,7 km/h (2 Bft) S 180 0 min 0 W/m 10,9 C 13,6 C 13,3 km/h (3 Bft)
17/10/2012 02:10 13,7 C 83 % 1005,7 hPa 0,0 mm 10,1 km/h (2 Bft) S-SE 157 0 min 0 W/m 10,9 C 13,7 C 16,2 km/h (3 Bft)
17/10/2012 02:20 13,8 C 83 % 1005,6 hPa 0,0 mm 9,0 km/h (2 Bft) S-SO 202 0 min 0 W/m 11,0 C 13,8 C 14,8 km/h (3 Bft)
17/10/2012 02:30 13,8 C 82 % 1005,5 hPa 0,0 mm 10,4 km/h (2 Bft) S-SE 157 0 min 0 W/m 10,8 C 13,8 C 15,8 km/h (3 Bft)
17/10/2012 02:40 13,9 C 82 % 1005,3 hPa 0,0 mm 9,4 km/h (2 Bft) S-SO 202 0 min 0 W/m 10,9 C 13,9 C 10,4 km/h (2 Bft)
17/10/2012 02:50 14,0 C 81 % 1005,3 hPa 0,0 mm 6,1 km/h (2 Bft) S 180 0 min 0 W/m 10,8 C 14,0 C 7,6 km/h (2 Bft)
17/10/2012 03:02 14,0 C 81 % 1005,2 hPa 0,0 mm 9,0 km/h (2 Bft) SO 225 0 min 0 W/m 10,8 C 14,0 C 22,0 km/h (4 Bft)
17/10/2012 03:10 13,9 C 80 % 1005,2 hPa 0,0 mm 13,7 km/h (3 Bft) S 180 0 min 0 W/m 10,5 C 13,9 C 19,1 km/h (3 Bft)
17/10/2012 03:20 13,9 C 80 % 1005,2 hPa 0,0 mm 13,3 km/h (3 Bft) S-SE 157 0 min 0 W/m 10,5 C 13,9 C 19,8 km/h (3 Bft)
17/10/2012 03:30 13,9 C 80 % 1005,2 hPa 0,0 mm 9,7 km/h (2 Bft) S 180 0 min 0 W/m 10,5 C 13,9 C 12,2 km/h (2 Bft)
17/10/2012 03:40 13,9 C 79 % 1005,2 hPa 0,0 mm 7,2 km/h (2 Bft) S-SE 157 0 min 0 W/m 10,3 C 13,9 C 9,4 km/h (2 Bft)
17/10/2012 03:50 13,8 C 79 % 1005,1 hPa 0,0 mm 6,8 km/h (2 Bft) S-SE 157 0 min 0 W/m 10,2 C 13,8 C 7,9 km/h (2 Bft)
17/10/2012 04:00 13,8 C 79 % 1005,2 hPa 0,0 mm 9,0 km/h (2 Bft) S-SO 202 0 min 0 W/m 10,2 C 13,8 C 10,4 km/h (2 Bft)
17/10/2012 04:10 13,8 C 79 % 1005,1 hPa 0,0 mm 4,7 km/h (1 Bft) S-SO 202 0 min 0 W/m 10,2 C 13,8 C 7,9 km/h (2 Bft)
17/10/2012 04:20 13,8 C 79 % 1005,1 hPa 0,0 mm 7,6 km/h (2 Bft) S-SE 157 0 min 0 W/m 10,2 C 13,8 C 13,7 km/h (3 Bft)
17/10/2012 04:30 13,8 C 78 % 1005,2 hPa 0,0 mm 6,5 km/h (2 Bft) S-SO 202 0 min 0 W/m 10,0 C 13,8 C 11,9 km/h (2 Bft)
17/10/2012 04:40 13,9 C 77 % 1005,2 hPa 0,0 mm 10,4 km/h (2 Bft) S-SO 202 0 min 0 W/m 9,9 C 13,9 C 10,8 km/h (2 Bft)
17/10/2012 04:50 14,3 C 76 % 1005,2 hPa 0,0 mm 12,6 km/h (3 Bft) S 180 0 min 0 W/m 10,1 C 14,3 C 19,4 km/h (3 Bft)
17/10/2012 05:00 14,6 C 74 % 1005,3 hPa 0,0 mm 10,8 km/h (2 Bft) S 180 0 min 0 W/m 10,0 C 14,6 C 15,5 km/h (3 Bft)
17/10/2012 05:10 14,8 C 73 % 1005,3 hPa 0,0 mm 18,0 km/h (3 Bft) S-SO 202 0 min 0 W/m 10,0 C 14,8 C 19,8 km/h (3 Bft)
17/10/2012 05:20 14,9 C 72 % 1005,3 hPa 0,0 mm 15,5 km/h (3 Bft) SO 225 0 min 0 W/m 9,9 C 14,9 C 15,5 km/h (3 Bft)
17/10/2012 05:30 15,1 C 72 % 1005,3 hPa 0,0 mm 11,9 km/h (2 Bft) SO 225 0 min 0 W/m 10,1 C 15,1 C 14,8 km/h (3 Bft)
17/10/2012 05:40 15,1 C 73 % 1005,7 hPa 0,0 mm 10,8 km/h (2 Bft) S-SO 202 0 min 0 W/m 10,3 C 15,1 C 16,6 km/h (3 Bft)
17/10/2012 05:50 14,9 C 73 % 1005,6 hPa 0,0 mm 7,9 km/h (2 Bft) S 180 0 min 0 W/m 10,1 C 14,9 C 7,9 km/h (2 Bft)
17/10/2012 06:00 14,8 C 74 % 1005,3 hPa 0,0 mm 12,2 km/h (2 Bft) SO 225 0 min 0 W/m 10,2 C 14,8 C 17,3 km/h (3 Bft)
17/10/2012 06:10 14,5 C 75 % 1005,1 hPa 0,0 mm 13,3 km/h (3 Bft) SO 225 0 min 0 W/m 10,1 C 14,5 C 13,3 km/h (3 Bft)
17/10/2012 06:20 14,2 C 77 % 1005,3 hPa 0,0 mm 12,6 km/h (3 Bft) S-SO 202 0 min 0 W/m 10,2 C 14,2 C 12,6 km/h (3 Bft)
17/10/2012 06:30 14,0 C 78 % 1005,9 hPa 0,0 mm 7,6 km/h (2 Bft) SO 225 0 min 0 W/m 10,2 C 14,0 C 11,2 km/h (2 Bft)
17/10/2012 06:40 13,9 C 79 % 1006,1 hPa 0,0 mm 11,5 km/h (2 Bft) O-SO 247 0 min 0 W/m 10,3 C 13,9 C 14,4 km/h (3 Bft)
17/10/2012 06:50 13,9 C 79 % 1006,0 hPa 0,0 mm 10,1 km/h (2 Bft) S-SO 202 0 min 0 W/m 10,3 C 13,9 C 10,1 km/h (2 Bft)
17/10/2012 07:00 13,8 C 79 % 1005,8 hPa 0,0 mm 8,3 km/h (2 Bft) S-SO 202 0 min 0 W/m 10,2 C 13,8 C 13,0 km/h (3 Bft)
17/10/2012 07:10 13,8 C 79 % 1005,8 hPa 0,0 mm 11,2 km/h (2 Bft) S-SO 202 0 min 0 W/m 10,2 C 13,8 C 18,4 km/h (3 Bft)
17/10/2012 07:20 13,8 C 79 % 1005,8 hPa 0,0 mm 13,0 km/h (3 Bft) S-SO 202 0 min 0 W/m 10,2 C 13,8 C 13,0 km/h (3 Bft)
17/10/2012 07:30 13,8 C 79 % 1005,7 hPa 0,0 mm 8,3 km/h (2 Bft) S-SO 202 0 min 0 W/m 10,2 C 13,8 C 11,2 km/h (2 Bft)
17/10/2012 07:40 13,8 C 79 % 1005,7 hPa 0,0 mm 5,8 km/h (2 Bft) O-SO 247 0 min 0 W/m 10,2 C 13,8 C 7,9 km/h (2 Bft)
17/10/2012 07:50 13,7 C 79 % 1005,7 hPa 0,0 mm 10,4 km/h (2 Bft) S-SE 157 0 min 0 W/m 10,1 C 13,7 C 15,1 km/h (3 Bft)
17/10/2012 08:00 13,7 C 78 % 1005,7 hPa 0,0 mm 10,8 km/h (2 Bft) S 180 0 min 0 W/m 9,9 C 13,7 C 18,7 km/h (3 Bft)
17/10/2012 08:10 13,6 C 77 % 1005,7 hPa 0,0 mm 8,6 km/h (2 Bft) S 180 0 min 0 W/m 9,6 C 13,6 C 14,8 km/h (3 Bft)
17/10/2012 08:20 13,7 C 77 % 1005,7 hPa 0,0 mm 7,6 km/h (2 Bft) S-SE 157 0 min 0 W/m 9,7 C 13,7 C 10,8 km/h (2 Bft)
17/10/2012 08:30 13,8 C 76 % 1005,8 hPa 0,0 mm 11,2 km/h (2 Bft) S-SO 202 0 min 0 W/m 9,6 C 13,8 C 16,6 km/h (3 Bft)
17/10/2012 08:40 13,9 C 75 % 1005,9 hPa 0,0 mm 11,5 km/h (2 Bft) S 180 0 min 0 W/m 9,5 C 13,9 C 11,9 km/h (2 Bft)
17/10/2012 08:50 14,1 C 74 % 1006,1 hPa 0,0 mm 13,7 km/h (3 Bft) SO 225 0 min 0 W/m 9,5 C 14,1 C 14,0 km/h (3 Bft)
17/10/2012 09:00 14,1 C 74 % 1006,4 hPa 0,0 mm 4,7 km/h (1 Bft) S-SO 202 0 min 0 W/m 9,5 C 14,1 C 10,1 km/h (2 Bft)
17/10/2012 09:10 14,2 C 74 % 1006,4 hPa 0,0 mm 11,5 km/h (2 Bft) S 180 0 min 0 W/m 9,6 C 14,2 C 25,9 km/h (4 Bft)
17/10/2012 09:20 14,3 C 74 % 1006,3 hPa 0,0 mm 17,6 km/h (3 Bft) S-SO 202 0 min 0 W/m 9,7 C 14,3 C 29,5 km/h (5 Bft)
17/10/2012 09:30 14,4 C 74 % 1006,4 hPa 0,0 mm 9,0 km/h (2 Bft) S-SE 157 0 min 0 W/m 9,8 C 14,4 C 19,4 km/h (3 Bft)
17/10/2012 09:40 14,4 C 74 % 1006,7 hPa 0,0 mm 18,4 km/h (3 Bft) S 180 0 min 0 W/m 9,8 C 14,4 C 18,4 km/h (3 Bft)
17/10/2012 09:50 14,3 C 76 % 1007,1 hPa 0,1 mm 22,3 km/h (4 Bft) S-SO 202 0 min 0 W/m 10,1 C 14,3 C 27,0 km/h (5 Bft)
17/10/2012 10:00 13,8 C 79 % 1007,0 hPa 0,0 mm 14,4 km/h (3 Bft) S 180 0 min 0 W/m 10,2 C 13,8 C 24,5 km/h (4 Bft)
17/10/2012 10:10 13,3 C 81 % 1007,0 hPa 0,1 mm 10,8 km/h (2 Bft) SO 225 0 min 0 W/m 10,1 C 13,3 C 15,8 km/h (3 Bft)
17/10/2012 10:20 13,1 C 83 % 1007,0 hPa 0,0 mm 8,3 km/h (2 Bft) S 180 0 min 0 W/m 10,3 C 13,1 C 13,0 km/h (3 Bft)
17/10/2012 10:30 13,1 C 83 % 1006,8 hPa 0,0 mm 11,2 km/h (2 Bft) S-SO 202 0 min 0 W/m 10,3 C 13,1 C 11,2 km/h (2 Bft)
17/10/2012 10:40 13,4 C 81 % 1006,9 hPa 0,0 mm 5,4 km/h (2 Bft) S-SO 202 0 min 0 W/m 10,2 C 13,4 C 9,7 km/h (2 Bft)
17/10/2012 10:50 13,8 C 81 % 1007,2 hPa 0,0 mm 10,1 km/h (2 Bft) S-SO 202 0 min 0 W/m 10,6 C 13,8 C 11,5 km/h (2 Bft)
17/10/2012 11:00 14,0 C 80 % 1007,3 hPa 0,0 mm 2,9 km/h (1 Bft) S-SO 202 0 min 0 W/m 10,6 C 14,0 C 6,1 km/h (2 Bft)
17/10/2012 11:10 14,1 C 80 % 1007,6 hPa 0,0 mm 6,1 km/h (2 Bft) S-SO 202 0 min 0 W/m 10,7 C 14,1 C 10,8 km/h (2 Bft)
17/10/2012 11:20 13,9 C 81 % 1007,6 hPa 0,1 mm 3,2 km/h (1 Bft) S-SO 202 0 min 0 W/m 10,7 C 13,9 C 6,1 km/h (2 Bft)
17/10/2012 11:30 13,8 C 83 % 1007,6 hPa 0,0 mm 2,9 km/h (1 Bft) S-SO 202 0 min 0 W/m 11,0 C 13,8 C 4,3 km/h (1 Bft)
17/10/2012 11:40 13,8 C 84 % 1007,5 hPa 0,0 mm 1,1 km/h (1 Bft) S-SO 202 0 min 0 W/m 11,1 C 13,8 C 4,0 km/h (1 Bft)
17/10/2012 11:50 13,8 C 85 % 1007,5 hPa 0,1 mm 1,4 km/h (1 Bft) S-SO 202 0 min 0 W/m 11,3 C 13,8 C 1,4 km/h (1 Bft)
17/10/2012 12:00 13,7 C 85 % 1007,4 hPa 0,0 mm 3,6 km/h (1 Bft) S 180 0 min 0 W/m 11,2 C 13,7 C 8,6 km/h (2 Bft)
17/10/2012 12:10 13,8 C 86 % 1007,3 hPa 0,0 mm 3,6 km/h (1 Bft) S-SE 157 0 min 0 W/m 11,5 C 13,8 C 8,6 km/h (2 Bft)
17/10/2012 12:20 13,8 C 87 % 1007,2 hPa 0,0 mm 5,4 km/h (2 Bft) S-SO 202 0 min 0 W/m 11,7 C 13,8 C 7,2 km/h (2 Bft)
17/10/2012 12:30 14,1 C 87 % 1006,9 hPa 0,0 mm 5,4 km/h (2 Bft) S 180 0 min 0 W/m 12,0 C 14,1 C 8,6 km/h (2 Bft)
17/10/2012 12:40 14,3 C 87 % 1007,1 hPa 0,1 mm 4,0 km/h (1 Bft) S-SO 202 0 min 0 W/m 12,2 C 14,3 C 8,6 km/h (2 Bft)
17/10/2012 12:50 14,4 C 87 % 1007,2 hPa 0,0 mm 2,9 km/h (1 Bft) S-SO 202 0 min 0 W/m 12,3 C 14,4 C 3,2 km/h (1 Bft)
17/10/2012 13:00 14,6 C 87 % 1007,1 hPa 0,0 mm 5,4 km/h (2 Bft) S-SO 202 0 min 0 W/m 12,5 C 14,6 C 5,4 km/h (2 Bft)
17/10/2012 13:10 14,8 C 87 % 1006,8 hPa 0,0 mm 6,5 km/h (2 Bft) S 180 0 min 0 W/m 12,7 C 14,8 C 6,5 km/h (2 Bft)
17/10/2012 13:20 15,1 C 86 % 1006,4 hPa 0,0 mm 7,6 km/h (2 Bft) S 180 0 min 0 W/m 12,8 C 15,1 C 10,8 km/h (2 Bft)
17/10/2012 13:30 15,4 C 85 % 1006,5 hPa 0,0 mm 10,8 km/h (2 Bft) S 180 0 min 0 W/m 12,9 C 15,4 C 11,9 km/h (2 Bft)
17/10/2012 13:40 15,9 C 83 % 1006,2 hPa 0,0 mm 9,7 km/h (2 Bft) S 180 0 min 0 W/m 13,0 C 15,9 C 16,2 km/h (3 Bft)
17/10/2012 13:50 16,5 C 81 % 1006,1 hPa 0,0 mm 7,6 km/h (2 Bft) S-SO 202 0 min 0 W/m 13,2 C 16,5 C 8,6 km/h (2 Bft)
17/10/2012 14:00 16,9 C 79 % 1005,9 hPa 0,0 mm 9,4 km/h (2 Bft) S 180 0 min 0 W/m 13,2 C 16,9 C 9,4 km/h (2 Bft)
17/10/2012 14:10 17,3 C 78 % 1005,6 hPa 0,0 mm 11,5 km/h (2 Bft) S-SE 157 0 min 0 W/m 13,4 C 17,3 C 15,8 km/h (3 Bft)
17/10/2012 14:20 17,6 C 77 % 1005,6 hPa 0,0 mm 9,7 km/h (2 Bft) S 180 0 min 0 W/m 13,5 C 17,6 C 12,6 km/h (3 Bft)
17/10/2012 14:30 17,8 C 76 % 1005,2 hPa 0,0 mm 7,2 km/h (2 Bft) S-SE 157 0 min 0 W/m 13,5 C 17,8 C 11,2 km/h (2 Bft)
17/10/2012 14:40 18,4 C 75 % 1005,3 hPa 0,0 mm 6,8 km/h (2 Bft) S-SO 202 0 min 0 W/m 13,9 C 18,4 C 7,6 km/h (2 Bft)
17/10/2012 14:50 18,8 C 72 % 1005,1 hPa 0,0 mm 7,9 km/h (2 Bft) S-SO 202 0 min 0 W/m 13,6 C 18,8 C 15,5 km/h (3 Bft)
17/10/2012 15:00 18,9 C 71 % 1005,1 hPa 0,0 mm 4,7 km/h (1 Bft) S-SO 202 0 min 0 W/m 13,5 C 18,9 C 12,6 km/h (3 Bft)
17/10/2012 15:10 19,0 C 70 % 1005,1 hPa 0,0 mm 9,7 km/h (2 Bft) S 180 0 min 0 W/m 13,4 C 19,0 C 12,6 km/h (3 Bft)
17/10/2012 15:20 18,9 C 70 % 1004,8 hPa 0,0 mm 8,6 km/h (2 Bft) E 90 0 min 0 W/m 13,3 C 18,9 C 14,0 km/h (3 Bft)
17/10/2012 15:30 18,9 C 70 % 1004,7 hPa 0,0 mm 7,9 km/h (2 Bft) S-SO 202 0 min 0 W/m 13,3 C 18,9 C 11,9 km/h (2 Bft)
17/10/2012 15:40 19,1 C 71 % 1004,8 hPa 0,0 mm 10,4 km/h (2 Bft) S-SO 202 0 min 0 W/m 13,7 C 19,1 C 11,9 km/h (2 Bft)
17/10/2012 15:50 19,4 C 70 % 1004,6 hPa 0,0 mm 10,4 km/h (2 Bft) S-SE 157 0 min 0 W/m 13,8 C 19,4 C 10,4 km/h (2 Bft)
17/10/2012 16:00 19,5 C 69 % 1004,5 hPa 0,0 mm 12,6 km/h (3 Bft) S 180 0 min 0 W/m 13,7 C 19,5 C 12,6 km/h (3 Bft)
17/10/2012 16:10 19,5 C 69 % 1004,6 hPa 0,0 mm 6,5 km/h (2 Bft) S 180 0 min 0 W/m 13,7 C 19,5 C 6,5 km/h (2 Bft)
17/10/2012 16:20 19,8 C 71 % 1004,6 hPa 0,0 mm 1,4 km/h (1 Bft) S 180 0 min 0 W/m 14,4 C 19,8 C 3,6 km/h (1 Bft)
17/10/2012 16:30 20,2 C 70 % 1004,7 hPa 0,0 mm 5,4 km/h (2 Bft) SO 225 0 min 0 W/m 14,5 C 20,2 C 12,6 km/h (3 Bft)
17/10/2012 16:40 20,5 C 67 % 1004,7 hPa 0,0 mm 7,9 km/h (2 Bft) S 180 0 min 0 W/m 14,2 C 20,5 C 15,5 km/h (3 Bft)
17/10/2012 16:50 20,4 C 67 % 1004,5 hPa 0,0 mm 8,3 km/h (2 Bft) S 180 0 min 0 W/m 14,1 C 20,4 C 15,5 km/h (3 Bft)
17/10/2012 17:00 20,3 C 67 % 1004,4 hPa 0,0 mm 7,2 km/h (2 Bft) S-SE 157 0 min 0 W/m 14,0 C 20,3 C 13,7 km/h (3 Bft)
17/10/2012 17:10 20,1 C 69 % 1004,4 hPa 0,0 mm 4,7 km/h (1 Bft) S-SO 202 0 min 0 W/m 14,2 C 20,1 C 6,8 km/h (2 Bft)
17/10/2012 17:20 19,9 C 70 % 1004,3 hPa 0,0 mm 5,4 km/h (2 Bft) S 180 0 min 0 W/m 14,3 C 19,9 C 7,9 km/h (2 Bft)
17/10/2012 17:30 19,6 C 70 % 1004,4 hPa 0,0 mm 0,0 km/h (0 Bft) SO 225 0 min 0 W/m 14,0 C 19,6 C 0,0 km/h (0 Bft)
17/10/2012 17:40 19,4 C 71 % 1004,3 hPa 0,0 mm 3,6 km/h (1 Bft) S 180 0 min 0 W/m 14,0 C 19,4 C 3,6 km/h (1 Bft)
17/10/2012 17:50 19,3 C 71 % 1004,2 hPa 0,0 mm 3,2 km/h (1 Bft) S-SE 157 0 min 0 W/m 13,9 C 19,3 C 7,6 km/h (2 Bft)
17/10/2012 18:00 19,2 C 72 % 1004,0 hPa 0,0 mm 4,0 km/h (1 Bft) S 180 0 min 0 W/m 14,0 C 19,2 C 4,3 km/h (1 Bft)
17/10/2012 18:10 19,1 C 72 % 1004,0 hPa 0,0 mm 2,9 km/h (1 Bft) S-SO 202 0 min 0 W/m 13,9 C 19,1 C 6,8 km/h (2 Bft)
17/10/2012 18:20 18,9 C 73 % 1004,0 hPa 0,0 mm 3,2 km/h (1 Bft) S 180 0 min 0 W/m 13,9 C 18,9 C 7,2 km/h (2 Bft)
17/10/2012 18:30 18,8 C 74 % 1004,0 hPa 0,0 mm 2,9 km/h (1 Bft) S-SO 202 0 min 0 W/m 14,1 C 18,8 C 7,2 km/h (2 Bft)
17/10/2012 18:40 18,5 C 74 % 1004,1 hPa 0,0 mm 1,4 km/h (1 Bft) S 180 0 min 0 W/m 13,8 C 18,5 C 3,6 km/h (1 Bft)
17/10/2012 18:50 18,2 C 75 % 1004,2 hPa 0,0 mm 0,7 km/h (0 Bft) SO 225 0 min 0 W/m 13,7 C 18,2 C 4,0 km/h (1 Bft)
17/10/2012 19:00 17,8 C 77 % 1004,3 hPa 0,0 mm 0,0 km/h (0 Bft) SO 225 0 min 0 W/m 13,7 C 17,8 C 0,0 km/h (0 Bft)
17/10/2012 19:10 17,5 C 77 % 1004,5 hPa 0,0 mm 1,8 km/h (1 Bft) S-SO 202 0 min 0 W/m 13,4 C 17,5 C 3,6 km/h (1 Bft)
17/10/2012 19:20 17,3 C 78 % 1004,3 hPa 0,0 mm 0,4 km/h (0 Bft) S-SO 202 0 min 0 W/m 13,4 C 17,3 C 4,0 km/h (1 Bft)
17/10/2012 19:30 17,1 C 79 % 1004,3 hPa 0,0 mm 1,8 km/h (1 Bft) S 180 0 min 0 W/m 13,4 C 17,1 C 4,0 km/h (1 Bft)
17/10/2012 19:40 17,0 C 79 % 1004,5 hPa 0,0 mm 1,4 km/h (1 Bft) S 180 0 min 0 W/m 13,3 C 17,0 C 3,6 km/h (1 Bft)
17/10/2012 19:50 16,9 C 79 % 1004,4 hPa 0,0 mm 2,9 km/h (1 Bft) S-SO 202 0 min 0 W/m 13,2 C 16,9 C 4,0 km/h (1 Bft)
17/10/2012 20:00 16,9 C 80 % 1004,4 hPa 0,0 mm 5,0 km/h (1 Bft) S-SE 157 0 min 0 W/m 13,4 C 16,9 C 5,0 km/h (1 Bft)
17/10/2012 20:10 16,9 C 80 % 1004,4 hPa 0,0 mm 6,1 km/h (2 Bft) S 180 0 min 0 W/m 13,4 C 16,9 C 11,2 km/h (2 Bft)
17/10/2012 20:20 16,9 C 80 % 1004,4 hPa 0,0 mm 9,0 km/h (2 Bft) SE 135 0 min 0 W/m 13,4 C 16,9 C 12,2 km/h (2 Bft)
17/10/2012 20:30 16,9 C 81 % 1004,3 hPa 0,0 mm 5,0 km/h (1 Bft) S 180 0 min 0 W/m 13,6 C 16,9 C 8,3 km/h (2 Bft)
17/10/2012 20:40 16,6 C 82 % 1004,3 hPa 0,0 mm 0,0 km/h (0 Bft) S 180 0 min 0 W/m 13,5 C 16,6 C 0,0 km/h (0 Bft)
17/10/2012 20:50 16,5 C 82 % 1004,4 hPa 0,0 mm 3,6 km/h (1 Bft) SO 225 0 min 0 W/m 13,4 C 16,5 C 7,9 km/h (2 Bft)
17/10/2012 21:00 16,6 C 82 % 1004,4 hPa 0,0 mm 5,8 km/h (2 Bft) S-SE 157 0 min 0 W/m 13,5 C 16,6 C 7,9 km/h (2 Bft)
17/10/2012 21:10 16,8 C 82 % 1004,1 hPa 0,0 mm 2,5 km/h (1 Bft) S-SO 202 0 min 0 W/m 13,7 C 16,8 C 4,3 km/h (1 Bft)
17/10/2012 21:20 17,1 C 80 % 1004,0 hPa 0,0 mm 10,4 km/h (2 Bft) S-SE 157 0 min 0 W/m 13,6 C 17,1 C 12,2 km/h (2 Bft)
17/10/2012 21:30 17,2 C 79 % 1003,7 hPa 0,0 mm 13,7 km/h (3 Bft) SE 135 0 min 0 W/m 13,5 C 17,2 C 23,8 km/h (4 Bft)
17/10/2012 21:40 17,4 C 78 % 1003,6 hPa 0,0 mm 13,0 km/h (3 Bft) E-SE 112 0 min 0 W/m 13,5 C 17,4 C 15,8 km/h (3 Bft)
17/10/2012 21:50 17,5 C 77 % 1003,7 hPa 0,0 mm 17,3 km/h (3 Bft) S-SE 157 0 min 0 W/m 13,4 C 17,5 C 31,7 km/h (5 Bft)
17/10/2012 22:00 17,7 C 77 % 1003,6 hPa 0,0 mm 9,4 km/h (2 Bft) S-SE 157 0 min 0 W/m 13,6 C 17,7 C 13,0 km/h (3 Bft)
17/10/2012 22:10 17,8 C 75 % 1003,5 hPa 0,0 mm 10,1 km/h (2 Bft) S-SE 157 0 min 0 W/m 13,3 C 17,8 C 14,0 km/h (3 Bft)
17/10/2012 22:20 17,8 C 75 % 1003,6 hPa 0,0 mm 14,8 km/h (3 Bft) S-SE 157 0 min 0 W/m 13,3 C 17,8 C 20,9 km/h (4 Bft)
17/10/2012 22:30 17,8 C 74 % 1003,5 hPa 0,0 mm 14,4 km/h (3 Bft) S 180 0 min 0 W/m 13,1 C 17,8 C 14,8 km/h (3 Bft)
17/10/2012 22:40 17,8 C 74 % 1003,5 hPa 0,0 mm 21,6 km/h (4 Bft) E-SE 112 0 min 0 W/m 13,1 C 17,8 C 36,4 km/h (5 Bft)
17/10/2012 22:50 17,9 C 73 % 1003,4 hPa 0,1 mm 18,0 km/h (3 Bft) SE 135 0 min 0 W/m 13,0 C 17,9 C 29,9 km/h (5 Bft)
17/10/2012 23:00 18,1 C 72 % 1003,1 hPa 0,0 mm 16,2 km/h (3 Bft) S-SE 157 0 min 0 W/m 13,0 C 18,1 C 27,0 km/h (5 Bft)
17/10/2012 23:10 18,3 C 72 % 1003,1 hPa 0,0 mm 14,0 km/h (3 Bft) SE 135 0 min 0 W/m 13,2 C 18,3 C 19,1 km/h (3 Bft)
17/10/2012 23:20 18,3 C 72 % 1003,0 hPa 0,0 mm 18,7 km/h (3 Bft) S 180 0 min 0 W/m 13,2 C 18,3 C 22,0 km/h (4 Bft)
17/10/2012 23:30 18,3 C 72 % 1003,2 hPa 0,0 mm 19,1 km/h (3 Bft) E-SE 112 0 min 0 W/m 13,2 C 18,3 C 31,0 km/h (5 Bft)
17/10/2012 23:40 18,1 C 72 % 1003,2 hPa 0,0 mm 11,9 km/h (2 Bft) S-SE 157 0 min 0 W/m 13,0 C 18,1 C 11,9 km/h (2 Bft)
17/10/2012 23:50 18,0 C 73 % 1003,1 hPa 0,0 mm 10,8 km/h (2 Bft) SE 135 0 min 0 W/m 13,1 C 18,0 C 11,5 km/h (2 Bft)
_ Min-Heure 00:00 17:00 23:20 - 20:40 - - - - 09:00 00:00 20:40
Minimum _ 12,5 C 67 % 1003,0 hPa - 0,0 km/h (0 Bft) - - - - 9,5 C 12,5 C 0,0 km/h (0 Bft)
_ Max-Heure 16:40 00:10 11:30 22:50 09:50 - - 23:50 23:50 16:30 16:40 22:40
Maximum _ 20,5 C 90 % 1007,6 hPa 0,1 mm 22,3 km/h
S-SO (4 Bft)
- - 0 min 0 W/m 14,5 C 20,5 C 36,4 km/h
E-SE (5 Bft)
Moyenne _ 15,8 C 78 % 1005,3 hPa #0,7 mm 8,6 km/h (2 Bft) S-SO - #0 min. 0 W/m 11,9 C 15,8 C 12,5 km/h (2 Bft)
Saint Bonnet de Bellac- Haute Vienne - France